User: anonymous   Login
Location: Unspecified
(0.0000°N, 0.0000°E)
Time: 12:33:58
(UTC+02:00)
Language:

H-2A R/B - Orbit

View from above orbital plane
View from above orbital plane
View from above satellite
View from above satellite

Ground track
Ground track

The orbit data is extracted from the following two-line orbital elements,

1 28932U 06002B   17113.87112035 +.00001071 +00000-0 +10556-3 0  9991
2 28932 098.2072 034.5743 0091084 128.9335 273.7758 14.91316890609605
Epoch (UTC): 23 April 2017 20:54:24
Eccentricity: 0.0091084
inclination: 98.2072°
perigee height: 530 km
apogee height: 657 km
right ascension of ascending node: 34.5743°
argument of perigee: 128.9335°
revolutions per day: 14.91316890
mean anomaly at epoch: 273.7758°
orbit number at epoch: 60960

The dashed part of the orbit path shows where the satellite is in the earth's shadow,  

DLR